TimeCST,TemperatureF,Dew PointF,Humidity,Sea Level PressureIn,VisibilityMPH,Wind Direction,Wind SpeedMPH,Gust SpeedMPH,PrecipitationIn,Events,Conditions,WindDirDegrees,DateUTC
12:53 AM,41.0,28.0,60,30.23,10.0,Calm,Calm,-,N/A,,Clear,0,2013-03-09 06:53:00
1:53 AM,37.9,30.0,73,30.22,10.0,ESE,3.5,-,N/A,,Clear,110,2013-03-09 07:53:00
2:53 AM,39.9,32.0,73,30.20,10.0,Calm,Calm,-,N/A,,Clear,0,2013-03-09 08:53:00
3:53 AM,42.1,30.9,65,30.21,10.0,Calm,Calm,-,N/A,,Clear,0,2013-03-09 09:53:00
4:53 AM,45.0,30.9,58,30.21,10.0,ESE,9.2,-,N/A,,Clear,110,2013-03-09 10:53:00
5:53 AM,46.0,28.0,50,30.23,10.0,ESE,12.7,-,N/A,,Mostly Cloudy,120,2013-03-09 11:53:00
6:53 AM,46.9,28.9,50,30.22,10.0,ESE,10.4,-,N/A,,Mostly Cloudy,120,2013-03-09 12:53:00
7:53 AM,48.9,28.0,44,30.25,10.0,SE,10.4,-,N/A,,Mostly Cloudy,130,2013-03-09 13:53:00
8:53 AM,48.9,28.9,46,30.24,10.0,ESE,13.8,-,N/A,,Mostly Cloudy,110,2013-03-09 14:53:00
9:53 AM,52.0,30.0,43,30.24,10.0,ESE,6.9,-,N/A,,Overcast,120,2013-03-09 15:53:00
10:53 AM,59.0,32.0,36,30.24,10.0,South,11.5,17.3,N/A,,Mostly Cloudy,180,2013-03-09 16:53:00
11:53 AM,59.0,32.0,36,30.22,10.0,South,5.8,-,N/A,,Overcast,180,2013-03-09 17:53:00
12:53 PM,64.0,33.1,31,30.18,10.0,SE,9.2,-,N/A,,Mostly Cloudy,130,2013-03-09 18:53:00
1:53 PM,66.0,34.0,30,30.14,10.0,SSE,15.0,-,N/A,,Mostly Cloudy,150,2013-03-09 19:53:00
2:53 PM,66.0,35.1,32,30.14,10.0,SSE,13.8,-,N/A,,Mostly Cloudy,160,2013-03-09 20:53:00
3:53 PM,64.9,35.1,33,30.12,10.0,SSE,13.8,-,N/A,,Mostly Cloudy,160,2013-03-09 21:53:00
4:53 PM,63.0,37.0,38,30.12,10.0,SSE,9.2,-,N/A,,Mostly Cloudy,150,2013-03-09 22:53:00
5:53 PM,60.1,37.0,42,30.12,10.0,SE,8.1,-,N/A,,Mostly Cloudy,130,2013-03-09 23:53:00
6:53 PM,59.0,36.0,42,30.10,10.0,SE,13.8,-,N/A,,Mostly Cloudy,130,2013-03-10 00:53:00
7:53 PM,57.9,36.0,44,30.10,10.0,ESE,10.4,-,N/A,,Mostly Cloudy,120,2013-03-10 01:53:00
8:53 PM,57.0,36.0,45,30.09,10.0,ESE,11.5,-,N/A,,Mostly Cloudy,110,2013-03-10 02:53:00
9:53 PM,55.9,35.1,45,30.07,10.0,ESE,10.4,-,N/A,,Scattered Clouds,120,2013-03-10 03:53:00
10:53 PM,52.0,35.1,53,30.08,10.0,SE,4.6,-,N/A,,Scattered Clouds,140,2013-03-10 04:53:00
11:53 PM,52.0,36.0,54,30.09,10.0,ESE,6.9,-,N/A,,Mostly Cloudy,110,2013-03-10 05:53:00